User: anonymous   Login
Location: Petruro
(41.0333°N, 14.7833°E)
Time: 05:42:07
(UTC+00:00)
Language:

CBERS-1 - Orbit

View from above orbital plane
View from above orbital plane
View from above satellite
View from above satellite

Ground track
Ground track

The orbit data is extracted from the following two-line orbital elements,

1 25940U 99057A   21261.46250113  .00000037  00000-0  28425-4 0  9999
2 25940  98.6628 212.6892 0006213  74.8605 285.3267 14.35553461148804
Epoch (UTC): 18 September 2021 11:06:00
Eccentricity: 0.0006213
inclination: 98.6628°
perigee height: 769 km
apogee height: 777 km
right ascension of ascending node: 212.6892°
argument of perigee: 74.8605°
revolutions per day: 14.35553461
mean anomaly at epoch: 285.3267°
orbit number at epoch: 14880

The dashed part of the orbit path shows where the satellite is in the earth's shadow,  

DLR